Helicity
159 163 166 166 155 144 142 144 100 59 67 117 138 139 129 101 98 99 127 80 65 59 50 40 46 89 88 68 71 72 61 66 63 62 56 46 38 52 48 41 50 41 31
173 180 199 185 167 158 127 134 110 87 87 147 189 155 109 91 106 133 152 109 71 54 54 48 43 65 57 70 74 62 45 44 60 61 58 51 40 44 42 36 40 25 21
189 190 195 199 188 157 127 114 129 115 150 157 151 202 172 129 86 115 144 137 96 82 77 48 52 70 62 55 59 49 46 37 51 58 55 38 35 26 36 34 34 18 19
204 201 213 201 196 172 150 128 158 180 171 175 165 166 169 114 130 115 165 147 147 100 82 71 68 69 58 61 51 44 37 42 52 51 38 42 28 23 27 29 20 17 17
191 190 204 209 212 183 161 150 174 202 169 196 168 160 173 209 193 224 177 132 126 101 103 82 74 60 61 51 38 33 34 45 43 28 34 34 21 22 27 24 26 21 27
162 186 208 212 226 203 199 189 191 208 175 206 216 196 285 220 219 177 131 126 109 96 93 90 72 61 64 50 43 20 30 34 41 20 36 31 23 28 29 34 33 27 31
146 165 196 211 215 224 231 246 243 226 228 248 291 201 224 178 161 127 129 117 99 91 94 112 115 108 72 66 39 17 28 41 30 44 42 31 31 31 38 36 30 21 17
192 161 186 225 250 237 228 255 241 261 256 265 263 250 197 166 144 75 91 98 101 103 89 122 138 120 113 93 52 5 28 33 29 42 42 37 26 28 28 24 12 4 8
214 191 209 247 267 246 233 256 232 264 285 283 278 284 309 242 204 150 119 140 122 114 111 126 133 125 126 118 56 18 38 41 39 46 38 31 16 22 15 10 2 32 57
252 223 239 223 231 230 168 188 259 265 272 268 334 235 221 250 226 210 157 160 197 117 92 119 146 134 138 126 78 64 35 34 53 39 33 13 12 20 8 44 56 56 58
237 216 220 222 216 206 191 189 261 248 255 296 311 291 220 294 200 268 262 288 207 158 118 102 127 139 151 139 110 83 56 35 30 14 16 15 33 46 60 55 54 84 125
173 173 162 198 214 213 194 200 213 242 244 274 280 289 294 392 351 315 292 277 326 248 176 136 141 121 141 142 131 104 84 49 43 50 81 91 63 51 55 57 117 177 189
120 134 160 161 193 178 173 168 185 206 242 253 322 313 302 275 285 324 267 275 400 435 299 242 168 143 153 177 155 125 109 91 92 104 107 97 81 59 142 216 223 231 216
113 112 138 176 194 149 128 178 207 196 220 214 270 312 278 303 234 284 355 406 392 422 438 269 260 221 178 183 190 168 169 163 184 202 217 251 274 297 319 325 293 262 230
90 124 129 114 144 130 157 171 173 203 240 220 257 277 269 222 230 266 289 375 479 390 415 338 287 228 221 232 251 258 260 278 344 361 372 391 396 397 377 311 339 336 276
61 74 114 139 152 155 156 167 177 171 190 233 240 231 236 202 217 203 332 433 436 358 477 524 418 377 321 386 366 367 421 486 476 500 469 451 414 383 330 361 387 343 273
55 57 63 114 130 152 165 182 160 145 172 207 219 225 225 205 210 202 334 488 499 551 576 744 545 416 490 461 481 527 579 601 576 538 524 505 468 442 356 336 366 390 332
91 58 60 122 110 137 146 145 127 146 175 183 205 187 196 192 151 168 257 561 482 791 704 862 658 629 474 511 584 590 574 555 518 468 463 429 428 445 447 349 217 356 314
71 114 69 80 118 147 153 114 129 152 170 179 194 228 221 188 135 159 180 249 526 523 846 930 723 699 657 531 686 704 631 590 484 345 386 406 405 352 311 390 160 178 250
40 72 107 79 64 146 156 137 140 165 183 198 213 204 179 126 94 139 180 275 537 625 868 881 749 668 645 595 668 710 635 516 456 412 435 406 310 348 289 289 166 88 146
30 62 102 98 105 158 184 178 168 158 158 151 162 168 158 128 94 88 117 206 373 634 714 758 771 712 653 616 577 608 612 551 484 432 490 457 267 262 231 221 146 144 139
33 52 65 145 102 127 167 169 204 171 157 149 148 168 166 126 99 93 103 146 542 714 681 885 808 750 583 581 654 643 718 634 446 388 539 405 287 290 285 240 139 183 166
40 45 64 100 110 112 166 180 183 186 162 153 156 179 171 175 127 106 89 128 198 565 779 682 615 618 712 585 684 653 543 506 517 425 495 335 385 330 273 226 179 163 146
44 30 54 87 113 116 143 153 185 211 183 179 204 197 163 168 129 108 172 234 322 413 496 727 781 660 562 730 630 652 615 617 462 457 461 387 430 361 252 278 161 136 150
67 42 29 68 60 67 103 210 281 259 242 241 218 204 166 179 149 153 239 310 407 559 581 534 474 439 650 659 767 887 717 613 630 522 475 426 517 401 309 230 175 149 155
56 54 11 25 51 50 113 115 252 288 295 257 252 219 195 169 152 196 231 308 426 499 670 778 741 724 632 604 723 674 496 478 604 594 431 515 499 452 306 242 209 193 178
Wind_Speed
8 6 4 6 7 12 13 13 9 9 9 10 12 9 11 12 25 16 6 8 2 4 3 5 6 5 5 6 5 7 10 12 15 16 18 18 13 14 17 18 18 20 21
16 13 9 7 6 7 8 9 6 7 7 11 13 11 7 11 13 15 8 6 8 9 4 2 3 4 4 3 4 5 7 12 14 15 17 12 12 14 15 16 17 19 21
22 18 15 12 10 7 7 6 2 2 4 6 8 6 12 9 14 6 9 8 13 9 2 4 4 3 0 1 2 3 6 9 11 12 13 8 11 12 13 14 16 18 21
27 23 20 17 14 11 10 9 5 1 2 1 6 4 14 10 20 12 11 10 18 23 11 6 2 3 2 2 1 2 4 5 7 9 8 7 9 10 12 14 16 19 22
30 28 25 21 17 15 13 12 8 6 4 4 6 4 8 9 24 28 15 12 20 23 20 8 6 8 6 3 2 2 3 3 4 5 7 7 8 9 12 14 17 20 22
32 32 31 25 21 19 16 14 14 11 8 5 7 9 18 15 20 29 28 20 20 26 20 14 10 8 8 6 4 5 5 4 8 13 8 6 7 9 11 14 18 20 23
30 30 31 28 25 25 23 19 14 13 16 8 10 16 17 19 25 20 43 24 21 20 23 19 16 13 10 8 6 9 11 14 5 9 4 5 6 8 12 12 21 24 25
35 34 35 33 30 28 26 24 18 13 20 9 9 17 24 31 26 33 26 28 22 24 22 21 21 16 13 12 10 12 10 7 11 9 1 6 6 7 8 12 15 20 23
46 45 40 38 33 32 30 28 22 19 20 16 12 12 24 32 28 43 33 35 29 27 34 27 23 21 18 15 12 12 29 17 12 9 9 9 8 7 9 11 15 23 25
56 52 43 39 32 29 29 31 29 25 21 20 19 15 21 22 28 39 44 38 40 29 25 29 26 27 24 20 17 18 17 16 12 11 11 8 7 6 11 15 19 24 27
58 50 47 40 38 33 32 32 32 28 27 23 23 21 20 25 24 38 45 46 45 41 32 28 28 27 30 27 23 21 20 21 22 17 14 14 14 13 14 18 23 22 25
60 52 45 44 39 37 34 34 35 33 31 26 25 24 23 22 30 35 43 37 48 48 39 39 34 30 32 33 30 25 26 23 21 20 15 13 13 14 17 18 17 20 25
64 57 47 42 35 35 36 35 34 34 32 30 29 29 28 26 29 34 36 35 41 49 47 46 41 33 33 37 38 29 29 26 24 21 17 14 14 15 12 15 18 22 25
66 62 50 47 43 36 35 32 35 33 32 32 32 34 32 30 29 40 36 34 42 48 51 47 49 41 33 31 42 38 34 28 25 22 18 13 11 12 13 14 18 23 28
66 67 62 53 47 42 38 33 35 37 34 35 36 35 34 29 32 35 35 40 46 48 53 49 48 42 34 30 36 40 35 27 23 21 16 13 12 13 14 17 21 26 31
66 66 63 60 50 45 42 39 39 41 37 39 39 37 33 31 36 36 41 47 56 52 56 58 52 42 34 30 34 33 30 26 23 21 20 18 15 15 15 16 21 26 31
66 66 69 62 55 45 37 40 42 40 41 41 38 35 33 30 35 45 37 47 63 52 55 57 52 39 38 32 29 31 31 28 27 24 22 20 19 19 19 21 20 27 31
68 68 65 61 58 48 37 39 43 42 42 40 40 37 33 32 37 37 45 43 57 52 54 58 48 47 44 35 30 28 31 28 25 24 19 19 18 20 18 23 27 31 32
70 70 68 66 54 53 46 40 41 40 43 44 41 39 37 35 40 42 44 58 53 56 58 59 52 49 47 40 34 30 32 28 22 13 15 16 19 19 22 25 28 33 36
72 73 74 70 63 55 56 49 42 38 46 48 46 45 43 37 33 44 43 34 43 45 50 54 54 50 46 45 40 37 32 25 21 18 23 24 18 22 23 26 26 32 38
74 74 76 77 67 62 56 56 49 43 46 52 50 47 41 34 29 29 36 26 46 51 53 50 55 53 51 49 48 40 35 26 20 23 24 22 19 23 24 28 31 32 34
73 74 75 78 74 65 58 55 52 49 46 51 52 47 41 35 28 25 26 31 29 42 48 57 59 57 55 54 46 42 37 30 28 27 30 30 25 28 28 29 30 32 31
75 75 76 79 83 73 67 66 61 51 40 46 53 51 45 37 29 27 25 29 30 38 49 46 56 59 55 56 50 43 41 34 34 26 27 33 34 33 32 34 33 30 29
77 76 76 78 83 83 73 71 53 57 42 44 49 48 47 42 34 27 27 31 38 36 40 51 56 60 55 53 56 47 39 33 22 24 25 40 35 35 33 34 29 28 29
79 78 76 78 80 85 76 66 56 48 48 46 51 53 50 47 36 29 29 30 34 41 54 46 47 46 44 50 49 40 39 35 35 31 36 41 35 35 38 32 28 28 31
80 80 76 75 75 78 71 67 50 58 48 46 49 51 52 47 35 30 27 29 32 37 43 43 41 36 32 42 43 45 38 36 37 40 36 36 25 33 37 32 28 32 33
Wind_Direction
240 234 200 161 140 129 126 117 75 102 99 26 14 23 12 296 270 268 235 157 278 318 8 357 343 0 22 9 31 48 56 62 71 70 66 63 32 31 42 35 23 19 13
264 261 246 213 189 153 141 134 112 119 94 16 4 35 20 303 272 269 236 217 262 284 303 0 29 330 322 11 357 31 54 73 73 72 74 38 25 31 35 28 19 19 16
265 257 249 240 225 201 174 161 118 60 47 47 3 19 16 292 280 216 193 215 264 272 260 293 308 319 10 34 5 29 68 74 74 71 67 7 43 37 24 13 8 5 -0
262 262 257 246 243 222 209 192 199 231 329 110 341 316 326 326 279 264 216 223 265 271 276 274 206 239 199 139 289 74 88 79 65 63 48 8 37 31 18 2 360 357 357
255 256 259 256 249 227 222 212 235 238 273 303 315 274 315 304 279 267 236 218 259 266 271 258 238 166 159 171 213 184 116 82 60 5 311 344 34 9 358 10 0 349 352
256 255 262 255 245 235 235 231 226 252 270 284 325 309 309 318 280 265 254 247 252 264 263 262 244 215 193 192 205 166 146 126 109 276 307 54 28 18 26 360 347 346 346
261 252 254 249 241 229 230 230 253 232 288 293 321 313 326 312 292 272 253 250 249 252 258 257 253 246 227 205 206 161 143 134 132 284 83 67 26 16 351 16 331 331 340
266 260 261 255 246 245 232 232 215 255 281 244 285 306 304 297 292 271 257 251 247 257 251 254 250 241 233 241 234 173 167 164 267 277 320 321 342 13 39 1 356 347 348
271 269 264 261 253 249 237 227 219 221 254 253 238 310 305 298 287 276 258 255 255 252 259 256 246 239 239 237 219 203 258 259 263 271 286 298 315 349 355 357 350 344 350
272 268 264 261 252 245 239 234 229 232 236 253 249 250 297 303 295 288 263 255 259 253 237 251 247 244 242 236 221 232 241 256 250 260 274 277 303 337 333 342 343 342 344
272 268 264 257 254 248 239 234 241 240 234 244 245 251 253 290 282 284 269 262 262 258 250 242 245 240 242 240 234 232 229 250 263 259 269 282 295 315 329 334 334 347 352
274 270 263 262 254 246 243 240 242 233 236 247 253 255 254 246 271 273 274 259 258 263 256 254 249 243 241 242 240 229 236 240 250 266 273 282 299 314 325 335 347 356 356
275 272 267 264 255 248 249 245 239 239 235 241 253 255 262 242 269 260 265 264 261 266 262 264 254 250 245 246 247 235 238 239 247 250 262 277 294 308 331 345 350 355 354
274 275 274 269 263 259 251 235 242 240 237 246 257 262 266 260 254 266 254 246 262 261 261 261 256 256 248 242 250 245 249 239 240 247 259 272 289 304 320 339 345 347 351
276 274 275 275 267 260 252 239 238 244 250 260 262 268 266 266 268 258 250 244 254 252 255 257 257 255 250 246 248 250 250 235 231 233 243 262 276 293 306 325 337 340 343
279 276 275 272 268 265 255 242 248 252 256 265 269 269 265 264 274 255 253 256 251 253 258 254 257 252 245 245 248 247 243 239 238 235 247 262 280 294 296 316 332 339 340
282 279 271 270 268 263 256 247 249 251 256 264 267 267 263 262 270 271 262 244 256 249 250 256 253 247 247 235 239 242 244 243 251 250 252 262 279 298 308 311 327 338 335
282 278 274 272 269 261 257 253 249 253 257 258 264 270 269 270 269 274 268 258 262 251 249 244 245 245 244 239 232 232 243 248 250 257 256 265 278 291 311 305 316 335 334
284 280 277 272 272 262 259 256 256 253 258 262 266 269 275 278 282 278 282 278 261 245 245 241 243 244 247 236 233 240 243 248 255 241 260 273 284 297 303 306 306 324 329
287 282 278 274 269 268 258 258 258 258 263 266 269 275 276 274 272 285 289 270 253 246 240 238 241 237 238 237 234 226 233 243 243 260 277 281 281 296 304 313 309 316 321
290 284 280 272 270 264 260 258 259 262 267 268 272 275 274 272 268 269 285 263 257 250 239 239 237 239 238 228 225 235 234 231 248 261 268 272 288 298 303 310 312 317 320
292 290 282 276 269 267 261 254 255 261 266 268 271 276 276 274 269 260 262 270 229 245 240 246 239 231 231 229 230 219 221 223 246 261 267 268 286 299 301 307 311 314 319
294 293 284 277 270 266 262 258 253 257 260 267 271 276 278 279 272 270 249 264 259 227 236 236 232 230 232 221 220 215 217 221 256 240 257 268 289 292 303 304 307 312 318
295 292 288 281 271 265 262 259 248 256 261 270 272 274 278 280 279 271 269 268 267 247 235 248 243 228 233 222 220 223 219 240 266 255 263 282 288 294 298 304 304 311 317
294 292 289 283 276 265 266 260 258 258 264 269 273 277 279 283 283 279 275 270 271 275 266 261 245 233 240 219 214 218 226 227 266 270 272 286 287 294 297 297 303 310 319
300 291 290 285 280 269 266 257 254 256 261 266 272 278 282 283 283 282 278 265 272 268 264 257 247 243 234 224 217 234 205 221 263 275 272 284 283 295 295 295 301 312 318